Погода в Сесерлиге

Россия / Республика Тыва     51°52′29″N   94°15′45″E
темп.,
°C
ветер,
м/с
пор.,
м/с
влажн.,
%
обл.,
%
осадки,
мм/ч
давл.,
гПа
погр.,
м
5 декабря, вс
вс501:00−18сз119550 0.1 10409
04:00−20зсз119574 0.0 10439
07:00−21ссз119775 0.0 10459
10:00−18ссз119691 0.0 104522
13:00−14вюв119342 0.1 104289
16:00−16сз1195100 0.0 10409
19:00−17сз119384 0.0 10399
22:00−19сз119443 0.0 10409
6 декабря, пн
пн601:00−20сз119758 0.0 10399
04:00−21сз119876 0.0 10399
07:00−22зсз119987 0.1 10409
10:00−20юз0099100 0.0 104025
13:00−16ююв1196100 0.0 103779
16:00−17зюз1196100 0.0 103611
19:00−18з019483 0.0 10379
22:00−20сз119584 0.0 10379
7 декабря, вт
вт701:00−21сз119551 0.0 10379
04:00−22сз119780 0.0 10369
07:00−23зсз119878 0.0 10369
10:00−21з009887 0.0 103520
13:00−17ю1095100 0.0 103272
16:00−16ююз1193100 0.0 103151
19:00−16юв0096100 0.0 103211
22:00−16ююз0093100 0.0 103219
8 декабря, ср
ср801:00−17с1192100 0.0 103212
04:00−16з1190100 0.0 103319
07:00−17зсз1191100 0.0 10369
10:00−19ссз119333 0.0 103811
13:00−15вюв108911 0.0 103776
16:00−18ссз119774 0.0 10379
19:00−18с119597 0.0 10379
22:00−17ссз1195100 0.0 10379
9 декабря, чт
чт901:00−15ююз0196100 0.1 103633
04:00−14зюз1196100 0.4 103536
07:00−16ссз2292100 0.4 103725
10:00−16ссз338798 0.0 104045
13:00−13с12812 0.0 104182
16:00−18ссз22852 0.0 104417
19:00−21ссз32813 0.0 104812
22:00−23ссз22805 0.0 105010